User: anonymous   Login
Location: Unspecified
(0.0000°N, 0.0000°E)
Time: 03:59:06
(UTC+00:00)
Language:

CHUBUSAT 1 - Orbit

View from above orbital plane
View from above orbital plane
View from above satellite
View from above satellite

Ground track
Ground track

The orbit data is extracted from the following two-line orbital elements,

1 40300U 14070C   17327.83038633  .00001241  00000-0  58470-4 0  9999
2 40300  97.3850  44.7366 0018527 262.5399 236.6325 15.21240643169056
Epoch (UTC): 23 November 2017 19:55:45
Eccentricity: 0.0018527
inclination: 97.3850°
perigee height: 489 km
apogee height: 515 km
right ascension of ascending node: 44.7366°
argument of perigee: 262.5399°
revolutions per day: 15.21240643
mean anomaly at epoch: 236.6325°
orbit number at epoch: 16905

The dashed part of the orbit path shows where the satellite is in the earth's shadow,  

DLR